Year,Month,Day,Hour,Minute,Value (Times are PST for temperature in C)
2007,01,31,00,00,3.10
2007,01,31,00,01,3.10
2007,01,31,00,02,3.00
2007,01,31,00,03,2.90
2007,01,31,00,04,2.90
2007,01,31,00,05,2.70
2007,01,31,00,06,2.70
2007,01,31,00,07,2.70
2007,01,31,00,08,2.60
2007,01,31,00,09,2.50
2007,01,31,00,10,2.40
2007,01,31,00,11,2.40
2007,01,31,00,12,2.30
2007,01,31,00,13,2.30
2007,01,31,00,14,2.20
2007,01,31,00,15,2.20
2007,01,31,00,16,2.20
2007,01,31,00,17,2.20
2007,01,31,00,18,2.20
2007,01,31,00,19,2.20
2007,01,31,00,20,2.30
2007,01,31,00,21,2.30
2007,01,31,00,22,2.30
2007,01,31,00,23,2.30
2007,01,31,00,24,2.30
2007,01,31,00,25,2.30
2007,01,31,00,26,2.30
2007,01,31,00,27,2.40
2007,01,31,00,28,2.40
2007,01,31,00,29,2.50
2007,01,31,00,30,2.50
2007,01,31,00,31,2.50
2007,01,31,00,32,2.50
2007,01,31,00,33,2.50
2007,01,31,00,34,2.50
2007,01,31,00,35,2.40
2007,01,31,00,36,2.40
2007,01,31,00,37,2.50
2007,01,31,00,38,2.50
2007,01,31,00,39,2.50
2007,01,31,00,40,2.50
2007,01,31,00,41,2.60
2007,01,31,00,42,2.70
2007,01,31,00,43,2.70
2007,01,31,00,44,2.90
2007,01,31,00,45,3.00
2007,01,31,00,46,3.10
2007,01,31,00,47,3.20
2007,01,31,00,48,3.30
2007,01,31,00,49,3.50
2007,01,31,00,50,3.60
2007,01,31,00,51,3.80
2007,01,31,00,52,3.80
2007,01,31,00,53,3.80
2007,01,31,00,54,3.90
2007,01,31,00,55,3.90
2007,01,31,00,56,3.80
2007,01,31,00,57,3.80
2007,01,31,00,58,3.80
2007,01,31,00,59,3.80
2007,01,31,01,00,3.80
2007,01,31,01,01,3.80
2007,01,31,01,02,3.80
2007,01,31,01,03,3.80
2007,01,31,01,04,3.80
2007,01,31,01,05,3.70
2007,01,31,01,06,3.70
2007,01,31,01,07,3.70
2007,01,31,01,08,3.70
2007,01,31,01,09,3.70
2007,01,31,01,10,3.70
2007,01,31,01,11,3.80
2007,01,31,01,12,3.90
2007,01,31,01,13,4.00
2007,01,31,01,14,4.00
2007,01,31,01,15,4.10
2007,01,31,01,16,4.20
2007,01,31,01,17,4.30
2007,01,31,01,18,4.30
2007,01,31,01,19,4.30
2007,01,31,01,20,4.30
2007,01,31,01,21,4.30
2007,01,31,01,22,4.30
2007,01,31,01,23,4.20
2007,01,31,01,24,4.20
2007,01,31,01,25,4.10
2007,01,31,01,26,4.00
2007,01,31,01,27,4.00
2007,01,31,01,28,4.00
2007,01,31,01,29,4.00
2007,01,31,01,30,4.00
2007,01,31,01,31,4.00
2007,01,31,01,32,3.90
2007,01,31,01,33,3.90
2007,01,31,01,34,3.90
2007,01,31,01,35,3.80
2007,01,31,01,36,3.70
2007,01,31,01,37,3.60
2007,01,31,01,38,3.50
2007,01,31,01,39,3.40
2007,01,31,01,40,3.30
2007,01,31,01,41,3.20
2007,01,31,01,42,3.10
2007,01,31,01,43,3.10
2007,01,31,01,44,3.10
2007,01,31,01,45,3.00
2007,01,31,01,46,2.90
2007,01,31,01,47,2.90
2007,01,31,01,48,3.00
2007,01,31,01,49,3.10
2007,01,31,01,50,3.10
2007,01,31,01,51,3.10
2007,01,31,01,52,3.20
2007,01,31,01,53,3.30
2007,01,31,01,54,3.30
2007,01,31,01,55,3.30
2007,01,31,01,56,3.40
2007,01,31,01,57,3.40
2007,01,31,01,58,3.40
2007,01,31,01,59,3.40
2007,01,31,02,00,3.40
2007,01,31,02,01,3.40
2007,01,31,02,02,3.50
2007,01,31,02,03,3.50
2007,01,31,02,04,3.40
2007,01,31,02,05,3.30
2007,01,31,02,06,3.20
2007,01,31,02,07,3.00
2007,01,31,02,08,2.90
2007,01,31,02,09,2.80
2007,01,31,02,10,2.70
2007,01,31,02,11,2.70
2007,01,31,02,12,2.70
2007,01,31,02,13,2.70
2007,01,31,02,14,2.70
2007,01,31,02,15,2.60
2007,01,31,02,16,2.60
2007,01,31,02,17,2.50
2007,01,31,02,18,2.50
2007,01,31,02,19,2.50
2007,01,31,02,20,2.40
2007,01,31,02,21,2.30
2007,01,31,02,22,2.30
2007,01,31,02,23,2.30
2007,01,31,02,24,2.20
2007,01,31,02,25,2.20
2007,01,31,02,26,2.20
2007,01,31,02,27,2.10
2007,01,31,02,28,2.10
2007,01,31,02,29,2.10
2007,01,31,02,30,2.00
2007,01,31,02,31,2.00
2007,01,31,02,32,2.00
2007,01,31,02,33,1.90
2007,01,31,02,34,1.90
2007,01,31,02,35,1.90
2007,01,31,02,36,1.80
2007,01,31,02,37,1.80
2007,01,31,02,38,1.80
2007,01,31,02,39,1.80
2007,01,31,02,40,1.70
2007,01,31,02,41,1.70
2007,01,31,02,42,1.60
2007,01,31,02,43,1.60
2007,01,31,02,44,1.60
2007,01,31,02,45,1.50
2007,01,31,02,46,1.50
2007,01,31,02,47,1.40
2007,01,31,02,48,1.40
2007,01,31,02,49,1.30
2007,01,31,02,50,1.30
2007,01,31,02,51,1.30
2007,01,31,02,52,1.30
2007,01,31,02,53,1.20
2007,01,31,02,54,1.20
2007,01,31,02,55,1.20
2007,01,31,02,56,1.10
2007,01,31,02,57,1.10
2007,01,31,02,58,1.10
2007,01,31,02,59,1.00
2007,01,31,03,00,1.00
2007,01,31,03,01,1.00
2007,01,31,03,02,0.90
2007,01,31,03,03,0.90
2007,01,31,03,04,0.90
2007,01,31,03,05,0.80
2007,01,31,03,06,0.80
2007,01,31,03,07,0.80
2007,01,31,03,08,0.80
2007,01,31,03,09,0.70
2007,01,31,03,10,0.70
2007,01,31,03,11,0.70
2007,01,31,03,12,0.70
2007,01,31,03,13,0.70
2007,01,31,03,14,0.70
2007,01,31,03,15,0.70
2007,01,31,03,16,0.70
2007,01,31,03,17,0.70
2007,01,31,03,18,0.70
2007,01,31,03,19,0.70
2007,01,31,03,20,0.70
2007,01,31,03,21,0.70
2007,01,31,03,22,0.70
2007,01,31,03,23,0.70
2007,01,31,03,24,0.70
2007,01,31,03,25,0.80
2007,01,31,03,26,0.80
2007,01,31,03,27,0.80
2007,01,31,03,28,0.80
2007,01,31,03,29,0.80
2007,01,31,03,30,0.80
2007,01,31,03,31,0.80
2007,01,31,03,32,0.70
2007,01,31,03,33,0.70
2007,01,31,03,34,0.70
2007,01,31,03,35,0.70
2007,01,31,03,36,0.60
2007,01,31,03,37,0.60
2007,01,31,03,38,0.60
2007,01,31,03,39,0.50
2007,01,31,03,40,0.50
2007,01,31,03,41,0.50
2007,01,31,03,42,0.50
2007,01,31,03,43,0.50
2007,01,31,03,44,0.40
2007,01,31,03,45,0.40
2007,01,31,03,46,0.40
2007,01,31,03,47,0.40
2007,01,31,03,48,0.30
2007,01,31,03,49,0.30
2007,01,31,03,50,0.30
2007,01,31,03,51,0.30
2007,01,31,03,52,0.20
2007,01,31,03,53,0.20
2007,01,31,03,54,0.20
2007,01,31,03,55,0.20
2007,01,31,03,56,0.20
2007,01,31,03,57,0.10
2007,01,31,03,58,0.10
2007,01,31,03,59,0.10
2007,01,31,04,00,0.10
2007,01,31,04,01,0.10
2007,01,31,04,02,0.10
2007,01,31,04,03,0.10
2007,01,31,04,04,0.10
2007,01,31,04,05,0.10
2007,01,31,04,06,-0.10
2007,01,31,04,07,-0.10
2007,01,31,04,08,-0.10
2007,01,31,04,09,-0.10
2007,01,31,04,10,-0.20
2007,01,31,04,11,-0.20
2007,01,31,04,12,-0.20
2007,01,31,04,13,-0.20
2007,01,31,04,14,-0.10
2007,01,31,04,15,-0.10
2007,01,31,04,16,-0.10
2007,01,31,04,17,-0.10
2007,01,31,04,18,0.00
2007,01,31,04,19,0.10
2007,01,31,04,20,0.20
2007,01,31,04,21,0.30
2007,01,31,04,22,0.40
2007,01,31,04,23,0.40
2007,01,31,04,24,0.40
2007,01,31,04,25,0.40
2007,01,31,04,26,0.40
2007,01,31,04,27,0.60
2007,01,31,04,28,0.80
2007,01,31,04,29,0.80
2007,01,31,04,30,0.80
2007,01,31,04,31,0.80
2007,01,31,04,32,0.90
2007,01,31,04,33,0.90
2007,01,31,04,34,0.80
2007,01,31,04,35,0.80
2007,01,31,04,36,0.80
2007,01,31,04,37,0.80
2007,01,31,04,38,0.80
2007,01,31,04,39,0.80
2007,01,31,04,40,0.80
2007,01,31,04,41,0.70
2007,01,31,04,42,0.70
2007,01,31,04,43,0.70
2007,01,31,04,44,0.60
2007,01,31,04,45,0.60
2007,01,31,04,46,0.60
2007,01,31,04,47,0.60
2007,01,31,04,48,0.50
2007,01,31,04,49,0.40
2007,01,31,04,50,0.40
2007,01,31,04,51,0.40
2007,01,31,04,52,0.40
2007,01,31,04,53,0.40
2007,01,31,04,54,0.30
2007,01,31,04,55,0.30
2007,01,31,04,56,0.20
2007,01,31,04,57,0.10
2007,01,31,04,58,0.10
2007,01,31,04,59,0.10
2007,01,31,05,00,-0.10
2007,01,31,05,01,-0.10
2007,01,31,05,02,-0.10
2007,01,31,05,03,-0.20
2007,01,31,05,04,-0.20
2007,01,31,05,05,-0.30
2007,01,31,05,06,-0.30
2007,01,31,05,07,-0.40
2007,01,31,05,08,-0.40
2007,01,31,05,09,-0.40
2007,01,31,05,10,-0.60
2007,01,31,05,11,-0.60
2007,01,31,05,12,-0.60
2007,01,31,05,13,-0.60
2007,01,31,05,14,-0.60
2007,01,31,05,15,-0.60
2007,01,31,05,16,-0.60
2007,01,31,05,17,-0.70
2007,01,31,05,18,-0.70
2007,01,31,05,19,-0.70
2007,01,31,05,20,-0.70
2007,01,31,05,21,-0.70
2007,01,31,05,22,-0.70
2007,01,31,05,23,-0.70
2007,01,31,05,24,-0.60
2007,01,31,05,25,-0.60
2007,01,31,05,26,-0.60
2007,01,31,05,27,-0.60
2007,01,31,05,28,-0.60
2007,01,31,05,29,-0.70
2007,01,31,05,30,-0.70
2007,01,31,05,31,-0.70
2007,01,31,05,32,-0.70
2007,01,31,05,33,-0.80
2007,01,31,05,34,-0.80
2007,01,31,05,35,-0.80
2007,01,31,05,36,-0.80
2007,01,31,05,37,-0.80
2007,01,31,05,38,-0.80
2007,01,31,05,39,-0.80
2007,01,31,05,40,-0.80
2007,01,31,05,41,-0.80
2007,01,31,05,42,-0.80
2007,01,31,05,43,-0.80
2007,01,31,05,44,-0.80
2007,01,31,05,45,-0.90
2007,01,31,05,46,-0.90
2007,01,31,05,47,-0.90
2007,01,31,05,48,-0.90
2007,01,31,05,49,-0.90
2007,01,31,05,50,-1.00
2007,01,31,05,51,-1.10
2007,01,31,05,52,-1.10
2007,01,31,05,53,-1.10
2007,01,31,05,54,-1.10
2007,01,31,05,55,-1.10
2007,01,31,05,56,-1.10
2007,01,31,05,57,-1.10
2007,01,31,05,58,-1.10
2007,01,31,05,59,-1.10
2007,01,31,06,00,-1.10
2007,01,31,06,01,-1.20
2007,01,31,06,02,-1.20
2007,01,31,06,03,-1.20
2007,01,31,06,04,-1.30
2007,01,31,06,05,-1.20
2007,01,31,06,06,-1.20
2007,01,31,06,07,-1.30
2007,01,31,06,08,-1.30
2007,01,31,06,09,-1.30
2007,01,31,06,10,-1.30
2007,01,31,06,11,-1.30
2007,01,31,06,12,-1.40
2007,01,31,06,13,-1.40
2007,01,31,06,14,-1.40
2007,01,31,06,15,-1.40
2007,01,31,06,16,-1.40
2007,01,31,06,17,-1.40
2007,01,31,06,18,-1.40
2007,01,31,06,19,-1.40
2007,01,31,06,20,-1.40
2007,01,31,06,21,-1.40
2007,01,31,06,22,-1.40
2007,01,31,06,23,-1.40
2007,01,31,06,24,-1.40
2007,01,31,06,25,-1.40
2007,01,31,06,26,-1.40
2007,01,31,06,27,-1.40
2007,01,31,06,28,-1.50
2007,01,31,06,29,-1.50
2007,01,31,06,30,-1.50
2007,01,31,06,31,-1.50
2007,01,31,06,32,-1.50
2007,01,31,06,33,-1.50
2007,01,31,06,34,-1.50
2007,01,31,06,35,-1.50
2007,01,31,06,36,-1.50
2007,01,31,06,37,-1.60
2007,01,31,06,38,-1.60
2007,01,31,06,39,-1.60
2007,01,31,06,40,-1.60
2007,01,31,06,41,-1.60
2007,01,31,06,42,-1.60
2007,01,31,06,43,-1.60
2007,01,31,06,44,-1.60
2007,01,31,06,45,-1.60
2007,01,31,06,46,-1.60
2007,01,31,06,47,-1.60
2007,01,31,06,48,-1.60
2007,01,31,06,49,-1.60
2007,01,31,06,50,-1.60
2007,01,31,06,51,-1.60
2007,01,31,06,52,-1.60
2007,01,31,06,53,-1.60
2007,01,31,06,54,-1.60
2007,01,31,06,55,-1.60
2007,01,31,06,56,-1.60
2007,01,31,06,57,-1.60
2007,01,31,06,58,-1.60
2007,01,31,06,59,-1.70
2007,01,31,07,00,-1.70
2007,01,31,07,01,-1.70
2007,01,31,07,02,-1.70
2007,01,31,07,03,-1.70
2007,01,31,07,04,-1.70
2007,01,31,07,05,-1.70
2007,01,31,07,06,-1.80
2007,01,31,07,07,-1.80
2007,01,31,07,08,-1.80
2007,01,31,07,09,-1.80
2007,01,31,07,10,-1.80
2007,01,31,07,11,-1.80
2007,01,31,07,12,-1.80
2007,01,31,07,13,-1.80
2007,01,31,07,14,-1.80
2007,01,31,07,15,-1.80
2007,01,31,07,16,-1.80
2007,01,31,07,17,-1.80
2007,01,31,07,18,-1.80
2007,01,31,07,19,-1.80
2007,01,31,07,20,-1.80
2007,01,31,07,21,-1.80
2007,01,31,07,22,-1.80
2007,01,31,07,23,-1.80
2007,01,31,07,24,-1.80
2007,01,31,07,25,-1.80
2007,01,31,07,26,-1.80
2007,01,31,07,27,-1.80
2007,01,31,07,28,-1.80
2007,01,31,07,29,-1.80
2007,01,31,07,30,-1.80
2007,01,31,07,31,-1.80
2007,01,31,07,32,-1.80
2007,01,31,07,33,-1.80
2007,01,31,07,34,-1.80
2007,01,31,07,35,-1.80
2007,01,31,07,36,-1.80
2007,01,31,07,37,-1.80
2007,01,31,07,38,-1.80
2007,01,31,07,39,-1.90
2007,01,31,07,40,-1.90
2007,01,31,07,41,-1.90
2007,01,31,07,42,-1.90
2007,01,31,07,43,-1.90
2007,01,31,07,44,-2.00
2007,01,31,07,45,-1.90
2007,01,31,07,46,-1.90
2007,01,31,07,47,-1.90
2007,01,31,07,48,-1.90
2007,01,31,07,49,-2.00
2007,01,31,07,50,-2.00
2007,01,31,07,51,-2.00
2007,01,31,07,52,-2.00
2007,01,31,07,53,-2.00
2007,01,31,07,54,-2.00
2007,01,31,07,55,-2.00
2007,01,31,07,56,-2.00
2007,01,31,07,57,-2.00
2007,01,31,07,58,-2.00
2007,01,31,07,59,-2.10
2007,01,31,08,00,-2.10
2007,01,31,08,01,-2.10
2007,01,31,08,02,-2.00
2007,01,31,08,03,-2.00
2007,01,31,08,04,-2.00
2007,01,31,08,05,-2.00
2007,01,31,08,06,-2.00
2007,01,31,08,07,-2.00
2007,01,31,08,08,-2.00
2007,01,31,08,09,-2.00
2007,01,31,08,10,-2.00
2007,01,31,08,11,-2.00
2007,01,31,08,12,-2.10
2007,01,31,08,13,-2.10
2007,01,31,08,14,-2.10
2007,01,31,08,15,-2.10
2007,01,31,08,16,-2.10
2007,01,31,08,17,-2.10
2007,01,31,08,18,-2.10
2007,01,31,08,19,-2.10
2007,01,31,08,20,-2.10
2007,01,31,08,21,-2.10
2007,01,31,08,22,-2.10
2007,01,31,08,23,-2.10
2007,01,31,08,24,-2.00
2007,01,31,08,25,-2.00
2007,01,31,08,26,-2.00
2007,01,31,08,27,-1.90
2007,01,31,08,28,-1.90
2007,01,31,08,29,-1.90
2007,01,31,08,30,-1.80
2007,01,31,08,31,-1.80
2007,01,31,08,32,-1.80
2007,01,31,08,33,-1.80
2007,01,31,08,34,-1.80
2007,01,31,08,35,-1.70
2007,01,31,08,36,-1.70
2007,01,31,08,37,-1.60
2007,01,31,08,38,-1.60
2007,01,31,08,39,-1.60
2007,01,31,08,40,-1.50
2007,01,31,08,41,-1.50
2007,01,31,08,42,-1.50
2007,01,31,08,43,-1.40
2007,01,31,08,44,-1.40
2007,01,31,08,45,-1.30
2007,01,31,08,46,-1.30
2007,01,31,08,47,-1.30
2007,01,31,08,48,-1.20
2007,01,31,08,49,-1.10
2007,01,31,08,50,-1.10
2007,01,31,08,51,-1.10
2007,01,31,08,52,-1.00
2007,01,31,08,53,-0.90
2007,01,31,08,54,-0.90
2007,01,31,08,55,-0.90
2007,01,31,08,56,-0.90
2007,01,31,08,57,-0.80
2007,01,31,08,58,-0.80
2007,01,31,08,59,-0.80
2007,01,31,09,00,-0.70
2007,01,31,09,01,-0.70
2007,01,31,09,02,-0.60
2007,01,31,09,03,-0.60
2007,01,31,09,04,-0.50
2007,01,31,09,05,-0.40
2007,01,31,09,06,-0.30
2007,01,31,09,07,-0.30
2007,01,31,09,08,-0.20
2007,01,31,09,09,-0.10
2007,01,31,09,10,0.00
2007,01,31,09,11,0.10
2007,01,31,09,12,0.20
2007,01,31,09,13,0.30
2007,01,31,09,14,0.40
2007,01,31,09,15,0.40
2007,01,31,09,16,0.50
2007,01,31,09,17,0.60
2007,01,31,09,18,0.60
2007,01,31,09,19,0.70
2007,01,31,09,20,0.70
2007,01,31,09,21,0.70
2007,01,31,09,22,0.70
2007,01,31,09,23,0.80
2007,01,31,09,24,0.80
2007,01,31,09,25,0.90
2007,01,31,09,26,1.00
2007,01,31,09,27,1.10
2007,01,31,09,28,1.20
2007,01,31,09,29,1.30
2007,01,31,09,30,1.30
2007,01,31,09,31,1.40
2007,01,31,09,32,1.50
2007,01,31,09,33,1.60
2007,01,31,09,34,1.70
2007,01,31,09,35,1.80
2007,01,31,09,36,1.90
2007,01,31,09,37,2.00
2007,01,31,09,38,2.10
2007,01,31,09,39,2.20
2007,01,31,09,40,2.30
2007,01,31,09,41,2.40
2007,01,31,09,42,2.60
2007,01,31,09,43,2.80
2007,01,31,09,44,3.00
2007,01,31,09,45,3.20
2007,01,31,09,46,3.40
2007,01,31,09,47,3.50
2007,01,31,09,48,3.60
2007,01,31,09,49,3.60
2007,01,31,09,50,3.60
2007,01,31,09,51,3.50
2007,01,31,09,52,3.50
2007,01,31,09,53,3.40
2007,01,31,09,54,3.40
2007,01,31,09,55,3.40
2007,01,31,09,56,3.40
2007,01,31,09,57,3.50
2007,01,31,09,58,3.60
2007,01,31,09,59,3.70
2007,01,31,10,00,3.90
2007,01,31,10,01,4.00
2007,01,31,10,02,4.10
2007,01,31,10,03,4.30
2007,01,31,10,04,4.40
2007,01,31,10,05,4.50
2007,01,31,10,06,4.60
2007,01,31,10,07,4.70
2007,01,31,10,08,4.80
2007,01,31,10,09,4.90
2007,01,31,10,10,5.00
2007,01,31,10,11,5.10
2007,01,31,10,12,5.20
2007,01,31,10,13,5.30
2007,01,31,10,14,5.40
2007,01,31,10,15,5.50
2007,01,31,10,16,5.60
2007,01,31,10,17,5.80
2007,01,31,10,18,5.90
2007,01,31,10,19,6.00
2007,01,31,10,20,6.10
2007,01,31,10,21,6.20
2007,01,31,10,22,6.20
2007,01,31,10,23,6.30
2007,01,31,10,24,6.30
2007,01,31,10,25,6.40
2007,01,31,10,26,6.40
2007,01,31,10,27,6.40
2007,01,31,10,28,6.40
2007,01,31,10,29,6.40
2007,01,31,10,30,6.40
2007,01,31,10,31,6.40
2007,01,31,10,32,6.60
2007,01,31,10,33,6.60
2007,01,31,10,34,6.70
2007,01,31,10,35,6.80
2007,01,31,10,36,6.80
2007,01,31,10,37,6.90
2007,01,31,10,38,6.90
2007,01,31,10,39,7.00
2007,01,31,10,40,7.00
2007,01,31,10,41,7.10
2007,01,31,10,42,7.00
2007,01,31,10,43,6.90
2007,01,31,10,44,6.80
2007,01,31,10,45,6.70
2007,01,31,10,46,6.70
2007,01,31,10,47,6.70
2007,01,31,10,48,6.70
2007,01,31,10,49,6.70
2007,01,31,10,50,6.80
2007,01,31,10,51,6.70
2007,01,31,10,52,6.70
2007,01,31,10,53,6.70
2007,01,31,10,54,6.70
2007,01,31,10,55,6.70
2007,01,31,10,56,6.70
2007,01,31,10,57,6.60
2007,01,31,10,58,6.60
2007,01,31,10,59,6.60
2007,01,31,11,00,6.60
2007,01,31,11,01,6.60
2007,01,31,11,02,6.60
2007,01,31,11,03,6.60
2007,01,31,11,04,6.70
2007,01,31,11,05,6.70
2007,01,31,11,06,6.80
2007,01,31,11,07,6.80
2007,01,31,11,08,6.90
2007,01,31,11,09,6.90
2007,01,31,11,10,7.00
2007,01,31,11,11,7.00
2007,01,31,11,12,7.00
2007,01,31,11,13,6.90
2007,01,31,11,14,6.80
2007,01,31,11,15,6.80
2007,01,31,11,16,6.80
2007,01,31,11,17,6.60
2007,01,31,11,18,6.60
2007,01,31,11,19,6.60
2007,01,31,11,20,6.60
2007,01,31,11,21,6.70
2007,01,31,11,22,6.70
2007,01,31,11,23,6.70
2007,01,31,11,24,6.80
2007,01,31,11,25,6.80
2007,01,31,11,26,6.80
2007,01,31,11,27,6.80
2007,01,31,11,28,6.80
2007,01,31,11,29,6.70
2007,01,31,11,30,6.70
2007,01,31,11,31,6.70
2007,01,31,11,32,6.70
2007,01,31,11,33,6.70
2007,01,31,11,34,6.70
2007,01,31,11,35,6.70
2007,01,31,11,36,6.80
2007,01,31,11,37,6.80
2007,01,31,11,38,6.80
2007,01,31,11,39,6.90
2007,01,31,11,40,7.00
2007,01,31,11,41,7.10
2007,01,31,11,42,7.10
2007,01,31,11,43,7.20
2007,01,31,11,44,7.20
2007,01,31,11,45,7.20
2007,01,31,11,46,7.20
2007,01,31,11,47,7.30
2007,01,31,11,48,7.30
2007,01,31,11,49,7.30
2007,01,31,11,50,7.30
2007,01,31,11,51,7.30
2007,01,31,11,52,7.30
2007,01,31,11,53,7.30
2007,01,31,11,54,7.30
2007,01,31,11,55,7.30
2007,01,31,11,56,7.40
2007,01,31,11,57,7.40
2007,01,31,11,58,7.40
2007,01,31,11,59,7.40
2007,01,31,12,00,7.40
2007,01,31,12,01,7.40
2007,01,31,12,02,7.50
2007,01,31,12,03,7.50
2007,01,31,12,04,7.50
2007,01,31,12,05,7.50
2007,01,31,12,06,7.60
2007,01,31,12,07,7.60
2007,01,31,12,08,7.60
2007,01,31,12,09,7.60
2007,01,31,12,10,7.70
2007,01,31,12,11,7.70
2007,01,31,12,12,7.70
2007,01,31,12,13,7.70
2007,01,31,12,14,7.70
2007,01,31,12,15,7.60
2007,01,31,12,16,7.60
2007,01,31,12,17,7.50
2007,01,31,12,18,7.50
2007,01,31,12,19,7.50
2007,01,31,12,20,7.50
2007,01,31,12,21,7.50
2007,01,31,12,22,7.50
2007,01,31,12,23,7.50
2007,01,31,12,24,7.60
2007,01,31,12,25,7.60
2007,01,31,12,26,7.70
2007,01,31,12,27,7.70
2007,01,31,12,28,7.80
2007,01,31,12,29,7.80
2007,01,31,12,30,7.80
2007,01,31,12,31,7.80
2007,01,31,12,32,7.80
2007,01,31,12,33,7.80
2007,01,31,12,34,7.80
2007,01,31,12,35,7.80
2007,01,31,12,36,7.80
2007,01,31,12,37,7.80
2007,01,31,12,38,7.90
2007,01,31,12,39,7.90
2007,01,31,12,40,8.00
2007,01,31,12,41,8.00
2007,01,31,12,42,8.10
2007,01,31,12,43,8.10
2007,01,31,12,44,8.10
2007,01,31,12,45,8.10
2007,01,31,12,46,8.20
2007,01,31,12,47,8.20
2007,01,31,12,48,8.20
2007,01,31,12,49,8.20
2007,01,31,12,50,8.20
2007,01,31,12,51,8.20
2007,01,31,12,52,8.20
2007,01,31,12,53,8.20
2007,01,31,12,54,8.40
2007,01,31,12,55,8.40
2007,01,31,12,56,8.50
2007,01,31,12,57,8.60
2007,01,31,12,58,8.60
2007,01,31,12,59,8.70
2007,01,31,13,00,8.70
2007,01,31,13,01,8.70
2007,01,31,13,02,8.70
2007,01,31,13,03,8.80
2007,01,31,13,04,8.90
2007,01,31,13,05,8.90
2007,01,31,13,06,8.90
2007,01,31,13,07,9.00
2007,01,31,13,08,9.10
2007,01,31,13,09,9.20
2007,01,31,13,10,9.30
2007,01,31,13,11,9.50
2007,01,31,13,12,9.50
2007,01,31,13,13,9.70
2007,01,31,13,14,9.70
2007,01,31,13,15,9.80
2007,01,31,13,16,9.90
2007,01,31,13,17,9.90
2007,01,31,13,18,9.90
2007,01,31,13,19,9.90
2007,01,31,13,20,9.90
2007,01,31,13,21,9.90
2007,01,31,13,22,9.90
2007,01,31,13,23,9.90
2007,01,31,13,24,9.70
2007,01,31,13,25,9.40
2007,01,31,13,26,9.20
2007,01,31,13,27,9.10
2007,01,31,13,28,8.90
2007,01,31,13,29,8.80
2007,01,31,13,30,8.70
2007,01,31,13,31,8.60
2007,01,31,13,32,8.60
2007,01,31,13,33,8.60
2007,01,31,13,34,8.50
2007,01,31,13,35,8.50
2007,01,31,13,36,8.50
2007,01,31,13,37,8.40
2007,01,31,13,38,8.50
2007,01,31,13,39,8.50
2007,01,31,13,40,8.50
2007,01,31,13,41,8.50
2007,01,31,13,42,8.50
2007,01,31,13,43,8.60
2007,01,31,13,44,8.60
2007,01,31,13,45,8.60
2007,01,31,13,46,8.60
2007,01,31,13,47,8.60
2007,01,31,13,48,8.60
2007,01,31,13,49,8.60
2007,01,31,13,50,8.60
2007,01,31,13,51,8.60
2007,01,31,13,52,8.60
2007,01,31,13,53,8.60
2007,01,31,13,54,8.60
2007,01,31,13,55,8.60
2007,01,31,13,56,8.60
2007,01,31,13,57,8.60
2007,01,31,13,58,8.60
2007,01,31,13,59,8.70
2007,01,31,14,00,8.70
2007,01,31,14,01,8.70
2007,01,31,14,02,8.70
2007,01,31,14,03,8.70
2007,01,31,14,04,8.80
2007,01,31,14,05,8.80
2007,01,31,14,06,8.80
2007,01,31,14,07,8.80
2007,01,31,14,08,8.80
2007,01,31,14,09,8.90
2007,01,31,14,10,8.90
2007,01,31,14,11,8.90
2007,01,31,14,12,8.90
2007,01,31,14,13,8.90
2007,01,31,14,14,8.90
2007,01,31,14,15,8.90
2007,01,31,14,16,8.90
2007,01,31,14,17,9.00
2007,01,31,14,18,9.00
2007,01,31,14,19,9.00
2007,01,31,14,20,9.10
2007,01,31,14,21,9.10
2007,01,31,14,22,9.10
2007,01,31,14,23,9.10
2007,01,31,14,24,9.00
2007,01,31,14,25,9.00
2007,01,31,14,26,9.10
2007,01,31,14,27,9.10
2007,01,31,14,28,9.10
2007,01,31,14,29,9.10
2007,01,31,14,30,9.10
2007,01,31,14,31,9.00
2007,01,31,14,32,9.00
2007,01,31,14,33,9.00
2007,01,31,14,34,8.90
2007,01,31,14,35,8.90
2007,01,31,14,36,8.90
2007,01,31,14,37,8.90
2007,01,31,14,38,8.90
2007,01,31,14,39,8.90
2007,01,31,14,40,8.90
2007,01,31,14,41,8.80
2007,01,31,14,42,8.80
2007,01,31,14,43,8.80
2007,01,31,14,44,8.70
2007,01,31,14,45,8.70
2007,01,31,14,46,8.70
2007,01,31,14,47,8.80
2007,01,31,14,48,8.80
2007,01,31,14,49,8.80
2007,01,31,14,50,8.70
2007,01,31,14,51,8.80
2007,01,31,14,52,8.80
2007,01,31,14,53,8.80
2007,01,31,14,54,8.80
2007,01,31,14,55,8.80
2007,01,31,14,56,8.80
2007,01,31,14,57,8.80
2007,01,31,14,58,8.80
2007,01,31,14,59,8.80
2007,01,31,15,00,8.80
2007,01,31,15,01,8.80
2007,01,31,15,02,8.80
2007,01,31,15,03,8.70
2007,01,31,15,04,8.70
2007,01,31,15,05,8.70
2007,01,31,15,06,8.70
2007,01,31,15,07,8.60
2007,01,31,15,08,8.60
2007,01,31,15,09,8.60
2007,01,31,15,10,8.60
2007,01,31,15,11,8.60
2007,01,31,15,12,8.60
2007,01,31,15,13,8.60
2007,01,31,15,14,8.60
2007,01,31,15,15,8.60
2007,01,31,15,16,8.60
2007,01,31,15,17,8.60
2007,01,31,15,18,8.60
2007,01,31,15,19,8.60
2007,01,31,15,20,8.60
2007,01,31,15,21,8.60
2007,01,31,15,22,8.60
2007,01,31,15,23,8.60
2007,01,31,15,24,8.60
2007,01,31,15,25,8.60
2007,01,31,15,26,8.60
2007,01,31,15,27,8.60
2007,01,31,15,28,8.70
2007,01,31,15,29,8.70
2007,01,31,15,30,8.70
2007,01,31,15,31,8.70
2007,01,31,15,32,8.70
2007,01,31,15,33,8.70
2007,01,31,15,34,8.70
2007,01,31,15,35,8.80
2007,01,31,15,36,8.80
2007,01,31,15,37,8.80
2007,01,31,15,38,8.80
2007,01,31,15,39,8.80
2007,01,31,15,40,8.90
2007,01,31,15,41,8.90
2007,01,31,15,42,8.90
2007,01,31,15,43,8.90
2007,01,31,15,44,8.90
2007,01,31,15,45,8.90
2007,01,31,15,46,8.90
2007,01,31,15,47,8.90
2007,01,31,15,48,8.90
2007,01,31,15,49,8.90
2007,01,31,15,50,8.90
2007,01,31,15,51,8.80
2007,01,31,15,52,8.80
2007,01,31,15,53,8.70
2007,01,31,15,54,8.70
2007,01,31,15,55,8.70
2007,01,31,15,56,8.70
2007,01,31,15,57,8.60
2007,01,31,15,58,8.60
2007,01,31,15,59,8.50
2007,01,31,16,00,8.50
2007,01,31,16,01,8.50
2007,01,31,16,02,8.50
2007,01,31,16,03,8.40
2007,01,31,16,04,8.40
2007,01,31,16,05,8.40
2007,01,31,16,06,8.40
2007,01,31,16,07,8.40
2007,01,31,16,08,8.30
2007,01,31,16,09,8.30
2007,01,31,16,10,8.30
2007,01,31,16,11,8.30
2007,01,31,16,12,8.30
2007,01,31,16,13,8.20
2007,01,31,16,14,8.20
2007,01,31,16,15,8.20
2007,01,31,16,16,8.20
2007,01,31,16,17,8.20
2007,01,31,16,18,8.10
2007,01,31,16,19,8.10
2007,01,31,16,20,8.00
2007,01,31,16,21,8.00
2007,01,31,16,22,7.90
2007,01,31,16,23,7.90
2007,01,31,16,24,7.80
2007,01,31,16,25,7.80
2007,01,31,16,26,7.80
2007,01,31,16,27,7.70
2007,01,31,16,28,7.70
2007,01,31,16,29,7.60
2007,01,31,16,30,7.50
2007,01,31,16,31,7.50
2007,01,31,16,32,7.40
2007,01,31,16,33,7.30
2007,01,31,16,34,7.30
2007,01,31,16,35,7.20
2007,01,31,16,36,7.10
2007,01,31,16,37,7.00
2007,01,31,16,38,6.90
2007,01,31,16,39,6.90
2007,01,31,16,40,6.80
2007,01,31,16,41,6.70
2007,01,31,16,42,6.70
2007,01,31,16,43,6.60
2007,01,31,16,44,6.60
2007,01,31,16,45,6.50
2007,01,31,16,46,6.40
2007,01,31,16,47,6.40
2007,01,31,16,48,6.30
2007,01,31,16,49,6.30
2007,01,31,16,50,6.20
2007,01,31,16,51,6.20
2007,01,31,16,52,6.10
2007,01,31,16,53,6.00
2007,01,31,16,54,6.00
2007,01,31,16,55,5.90
2007,01,31,16,56,5.80
2007,01,31,16,57,5.70
2007,01,31,16,58,5.70
2007,01,31,16,59,5.50
2007,01,31,17,00,5.50
2007,01,31,17,01,5.30
2007,01,31,17,02,5.30
2007,01,31,17,03,5.20
2007,01,31,17,04,5.10
2007,01,31,17,05,5.10
2007,01,31,17,06,5.10
2007,01,31,17,07,5.10
2007,01,31,17,08,5.10
2007,01,31,17,09,5.00
2007,01,31,17,10,4.90
2007,01,31,17,11,4.90
2007,01,31,17,12,4.90
2007,01,31,17,13,4.80
2007,01,31,17,14,4.80
2007,01,31,17,15,4.70
2007,01,31,17,16,4.70
2007,01,31,17,17,4.70
2007,01,31,17,18,4.60
2007,01,31,17,19,4.60
2007,01,31,17,20,4.60
2007,01,31,17,21,4.60
2007,01,31,17,22,4.50
2007,01,31,17,23,4.50
2007,01,31,17,24,4.40
2007,01,31,17,25,4.40
2007,01,31,17,26,4.30
2007,01,31,17,27,4.30
2007,01,31,17,28,4.20
2007,01,31,17,29,4.20
2007,01,31,17,30,4.20
2007,01,31,17,31,4.10
2007,01,31,17,32,4.00
2007,01,31,17,33,4.00
2007,01,31,17,34,3.90
2007,01,31,17,35,3.90
2007,01,31,17,36,3.80
2007,01,31,17,37,3.80
2007,01,31,17,38,3.80
2007,01,31,17,39,3.70
2007,01,31,17,40,3.70
2007,01,31,17,41,3.60
2007,01,31,17,42,3.60
2007,01,31,17,43,3.60
2007,01,31,17,44,3.50
2007,01,31,17,45,3.50
2007,01,31,17,46,3.50
2007,01,31,17,47,3.40
2007,01,31,17,48,3.40
2007,01,31,17,49,3.40
2007,01,31,17,50,3.30
2007,01,31,17,51,3.30
2007,01,31,17,52,3.30
2007,01,31,17,53,3.30
2007,01,31,17,54,3.20